Location: ????????
(55.8351°N, 38.7040°E)
Time: 19:15:10
(UTC+00:00)

Envisat - Pass Details

Date: 14 April 2024
Orbit: 762 x 764 km, 98.3° (Epoch: 18 May)

Event Time Altitude Azimuth Distance (km) Brightness Sun altitude
Rises 00:59:42 0° 16° (NNE) 3,244 7.2 -11.1°
Reaches altitude 10° 01:02:02 10° 18° (NNE) 2,314 6.4 -10.8°
Maximum altitude 01:07:08 77° 105° (ESE) 789 3.2 -10.2°
Drops below altitude 10° 01:12:12 10° 192° (SSW) 2,296 5.1 -9.6°
Enters shadow 01:13:59 - 193° (SSW) 3,009 5.6 -9.4°
